Regional Weather Roundup
Issued by NWS

Home | Current Version | Previous Version | Text Only | Print | Product List | Glossary Off
Versions: 1 2 3 4 5 6 7 8 9 10 11 12 13 14 15 16 17 18 19 20 21 22 23 24 25 26 27 28 29 30 31 32 33 34 35 36 37 38 39 40 41 42 43 44 45 46 47 48 49 50

000
ASUS43 KMPX 152210
RWRMN
WEATHER ROUNDUP FOR MINNESOTA
NATIONAL WEATHER SERVICE TWIN CITIES/CHANHASSEN MN
500 PM CDT TUE APR 15 2014


NOTE: "FAIR" INDICATES FEW OR NO CLOUDS BELOW 12,000 FEET WITH NO
SIGNIFICANT WEATHER AND/OR OBSTRUCTIONS TO VISIBILITY. N/A MEANS
CURRENT SKY AND/OR WEATHER CONDITIONS ARE NOT AVAILABLE.

MNZ060>063-068>070-152300-
   Twin Cities Metro

CITY           SKY/WX    TMP DP  RH WIND       PRES   REMARKS
TWIN CITIES    MOSUNNY   36   2  23 CALM      30.06F
ST PAUL        SUNNY     37   0  21 VRB3      30.07F
CRYSTAL        SUNNY     36   1  22 CALM      30.05S
EDEN PRAIRIE   MOSUNNY   37   2  22 CALM      30.04F
LAKEVILLE      SUNNY     36   7  30 NW6       30.05F
SOUTH ST PAUL  SUNNY     38  -1  19 W7        30.06S
LAKE ELMO      FAIR      36   3  25 S3        30.06S
$$
MNZ001>005-007-008-013>017-022>024-027-028-152300-
   Northwest Minnesota

CITY           SKY/WX    TMP DP  RH WIND       PRES   REMARKS
BEMIDJI        SUNNY     31  -3  23 E5        30.00S WCI  26
HALLOCK        CLOUDY    28  10  47 CALM      30.03F
ROSEAU         SUNNY     28   3  34 E3        30.04S
WARROAD        SUNNY     27   7  43 E7        30.05F WCI  19
THIEF RVR FALL SUNNY     28   7  40 SE5       30.02F WCI  23
CROOKSTON      MOSUNNY   32   9  37 SE7       30.02F WCI  26
FOSSTON        MOSUNNY   36  10  35 CALM      30.00F
DETROIT LAKES  MOSUNNY   32   3  29 SE7       30.00S WCI  26
MOORHEAD       PTSUNNY   32   7  34 SE3       30.00F
PARK RAPIDS    PTSUNNY   32   1  26 SE7       29.98F WCI  26
$$
MNZ006-009>011-018-025>026-152300-
   North Central Minnesota

CITY           SKY/WX    TMP DP  RH WIND       PRES   REMARKS
BAUDETTE       SUNNY     26   1  34 N5        30.05S WCI  20
FLAG ISLAND    MOSUNNY   21   3  45 S6        30.05S WCI  14
INTL FALLS     SUNNY     28   1  31 N6        30.03S WCI  22
WASKISH        SUNNY     28   3  34 SW6       30.03S WCI  22
BIG FORK       SUNNY     30  -2  24 N3        30.01F
LONGVILLE      SUNNY     32  -6  19 CALM      30.01S
GRAND RAPIDS   SUNNY     28  -6  22 SW3       30.01S
CRANE LAKE     SUNNY     28   7  40 N7        30.05S WCI  21
ORR            SUNNY     28  -2  26 NW6       29.99S WCI  22
COOK           SUNNY     28   1  31 SW5       30.02S WCI  23
$$
MNZ012-019>021-037-152300-
   Northeast Minnesota

CITY           SKY/WX    TMP DP  RH WIND       PRES   REMARKS
DULUTH         SUNNY     30   2  30 NW9G17    30.01S WCI  22
ELY            SUNNY     27  -2  28 NW3G17    30.01R
HIBBING        SUNNY     31   0  26 VRB3      30.00F
EVELETH        SUNNY     30   1  29 N3        30.02R
DULUTH HARBOR  SUNNY     34   5  29 CALM      30.07S
TWO HARBORS    SUNNY     30   3  31 SW5       30.00S WCI  25
SILVER BAY     SUNNY     28  14  54 S9        30.00S WCI  20
GRAND MARAIS     N/A     28  17  63 SW21      30.04S WCI  15
G MARAIS ARPRT SUNNY     25  -6  26 NW9G20    29.97R WCI  15
$$
MNZ029>031-032-039>041-046>048-054>057-064-152300-
   West Central Minnesota

CITY           SKY/WX    TMP DP  RH WIND       PRES   REMARKS
FERGUS FALLS   PTSUNNY   34   1  25 SE9       29.97F WCI  26
WHEATON        MOSUNNY   37  12  35 SE14      29.99F
MORRIS         MOSUNNY   36   9  32 SE12      29.98F
ALEXANDRIA     CLOUDY    33   4  29 SE7       29.99F WCI  27
ELBOW LAKE     FAIR      32   2  28 SE9       29.99F WCI  24
WADENA         SUNNY     30   7  37 CALM      29.99F
GLENWOOD       MOSUNNY   34   1  25 SE8       30.00F WCI  27
APPLETON       MOSUNNY   39   9  28 E12       29.98F
BENSON         CLOUDY    37   7  28 S9        30.00F
ORTONVILLE     MOSUNNY   37  10  32 SE13      29.95F
MADISON        MOSUNNY   43  12  28 E15       29.96F
WILLMAR        FAIR      37   3  23 SE6       30.02F
$$
MNZ033>034-036-042>043-049>051-058-059-152300-
   Central Minnesota

CITY           SKY/WX    TMP DP  RH WIND       PRES   REMARKS
ST CLOUD       SUNNY     35   2  24 W7        30.03F WCI  29
SAUK CENTRE    FAIR      33   8  35 SE6       30.01F WCI  28
PAYNESVILLE    CLOUDY    33   4  29 SE7       30.02F WCI  27
AITKIN         SUNNY     36 -17  10 W3        30.02R
PINE RIVER     MOSUNNY   32   7  34 SE3       30.04S
BRAINERD       MOSUNNY   37  -4  17 N3        30.02F
STAPLES        MOSUNNY   32   0  25 SW5       30.01S WCI  27
LONG PRAIRIE   FAIR      32   5  32 CALM      30.01F
LITTLE FALLS   SUNNY     32   1  27 CALM      30.03F
LITCHFIELD     CLOUDY    36   5  27 E5        30.03F
BUFFALO        MOSUNNY   36   5  27 CALM      30.06S
MAPLE LAKE     MOSUNNY   37   8  30 SE5       30.05S
$$
MNZ037-044-045-052-053-152300-
   East Central Minnesota

CITY           SKY/WX    TMP DP  RH WIND       PRES   REMARKS
PRINCETON      SUNNY     36   3  25 N5        30.04F
MORA           SUNNY     34   3  27 S3        30.06S
CAMBRIDGE      SUNNY     36  14  41 CALM      30.03S
RUSH CITY      SUNNY     35   6  30 SW5       30.06S WCI  30
MOOSE LAKE     SUNNY     32   1  27 NW6       30.02S WCI  26
HINCKLEY       FAIR      34   0  23 NW3       30.05S
CLOQUET        SUNNY     30  -6  21 NW5       30.02S WCI  25
MCGREGOR       SUNNY     32   1  27 SW5       30.03S WCI  27
$$
MNZ071>073-080-081-089-090-097-098-152300-
   Southwest Minnesota

CITY           SKY/WX    TMP DP  RH WIND       PRES   REMARKS
MONTEVIDEO     CLOUDY    39   9  28 S7        30.00F
GRANITE FALLS  CLOUDY    38   9  30 SE10G17   30.01F
CANBY          MOSUNNY   44  12  27 SE13G20   29.94F
MARSHALL       SUNNY     43  10  26 SE14      29.95F
REDWOOD FALLS  PTSUNNY   39  10  30 SE13      30.01F
OLIVIA         CLOUDY    36  10  35 S6        30.01S
PIPESTONE      MOSUNNY   43  16  33 S15G26    29.89F
WINDOM         CLOUDY    41   7  24 S8        29.98F
WORTHINGTON    SUNNY     41  14  33 S14G23    29.98S
JACKSON        CLOUDY    41  10  28 S13       30.00S
TRACY          MOSUNNY   44  12  27 S14G21    29.96F
SLAYTON        PTSUNNY   42  13  31 S17G25    29.94F
$$
MNZ065>067-074>077-082>085-091>093-152300-
   South Central Minnesota

CITY           SKY/WX    TMP DP  RH WIND       PRES   REMARKS
MANKATO        PTSUNNY   36   1  23 CALM      30.05F
NEW ULM        CLOUDY    36   9  32 S5        30.03F
ST JAMES       CLOUDY    39   7  26 S7        30.03F
FAIRMONT       SUNNY     37  10  32 SW10      30.04F
GLENCOE        CLOUDY    37   2  23 S6        30.04F
FARIBAULT      MOSUNNY   39   1  20 SE3       30.06S
OWATONNA       SUNNY     36   9  32 S9        30.05F
WASECA         MOSUNNY   37  12  35 SW7       30.07F
ALBERT LEA     PTSUNNY   36  10  35 S6        30.05S
$$
MNZ078>079-086>088-094>096-152300-
   Southeast Minnesota

CITY           SKY/WX    TMP DP  RH WIND       PRES   REMARKS
ROCHESTER      SUNNY     34  16  47 S7        30.06F WCI  28
RED WING       MOSUNNY   37   5  25 NW7       30.07R
STANTON        SUNNY     37   6  28 W5        30.06S
DODGE CENTER   SUNNY     37   7  28 SW7       30.05S
WINONA         SUNNY     36  12  38 SW5       30.09F
AUSTIN         SUNNY     34  10  37 CALM      30.06S
PRESTON        SUNNY     34  14  44 S5        30.07F WCI  30
$$
ABBREVIATIONS USED IN REMARKS
   TC - TEMPERATURES IN CELSIUS
  WCI - WIND CHILL INDEX
   HX - HEAT INDEX
  VSB - VISIBILITY
$$



USA.gov is the U.S. government's official web portal to all federal, state and local government web resources and services.